Weather History for Houston, TX

Change the Weather History Date:

Sunday, September 1, 2013

  Actual Average Record
Temperature  
Mean Temperature 85 °F 83 °F  
Max Temperature 96 °F 93 °F 107 °F (2000)
Min Temperature 73 °F 74 °F 63 °F (1915)
Cooling Degree Days 20 18  
Month to date cooling degree days 20 18  
Year to date cooling degree days 2413 2400  
Growing Degree Days 35 (Base 50)    
Moisture  
Dew Point 71 °F    
Average Humidity 66    
Maximum Humidity 93    
Minimum Humidity 38    
Precipitation  
Precipitation 0.00 in 0.15 in 2.22 in (1892)
Month to date precipitation 0.00 0.15  
Year to date precipitation 21.20 32.02  
Sea Level Pressure  
Sea Level Pressure 29.90 in    
Wind  
Wind Speed 6 mph (SSW)    
Max Wind Speed 21 mph    
Max Gust Speed 24 mph    
Visibility 10 miles    
Events      
T = Trace of Precipitation, MM = Missing Value Source: NWS Daily Summary

Daily Weather History Graph

Daily Weather History Graph

Search for Another Location

Airport:

Trip Planner

Search our weather history database for the weather conditions in past years. The results will help you decide how hot, cold, wet, or windy it might be!

Date:

Astronomy

Sep. 01, 2013 Rise Set
Actual Time 6:58 AM CDT 7:42 PM CDT
Civil Twilight 6:34 AM CDT 8:07 PM CDT
Nautical Twilight 6:05 AM CDT 8:35 PM CDT
Astronomical Twilight 5:36 AM CDT 9:04 PM CDT
Moon 3:31 AM CDT (9/1) 5:12 PM CDT (9/1)
Length of Visible Light 13h 32m
Length of Day
12h 44m
Waning Crescent, 13% of the Moon is Illuminated
Sep 1
Waning Crescent
Sep 5
New
Sep 12
First Quarter
Sep 19
Full
Sep 26
Last Quarter

Hourly Weather History & Observations

Time (CDT) Temp. Heat Index Dew Point Humidity Pressure Visibility Wind Dir Wind Speed Gust Speed Precip Events Conditions
12:53 AM 78.1 °F - 71.1 °F 79% 29.89 in 10.0 mi South 4.6 mph - N/A   Clear
1:53 AM 77.0 °F - 71.1 °F 82% 29.89 in 10.0 mi South 3.5 mph - N/A   Partly Cloudy
2:53 AM 77.0 °F - 71.1 °F 82% 29.89 in 10.0 mi SSW 5.8 mph - N/A   Scattered Clouds
3:53 AM 75.9 °F - 71.1 °F 85% 29.89 in 10.0 mi SSW 3.5 mph - N/A   Partly Cloudy
4:53 AM 75.0 °F - 71.1 °F 87% 29.89 in 10.0 mi SSW 3.5 mph - N/A   Partly Cloudy
5:53 AM 75.0 °F - 71.1 °F 87% 29.90 in 10.0 mi Calm Calm - N/A   Scattered Clouds
6:53 AM 75.0 °F - 71.1 °F 87% 29.92 in 10.0 mi Calm Calm - N/A   Partly Cloudy
7:53 AM 77.0 °F - 73.0 °F 88% 29.94 in 10.0 mi Calm Calm - N/A   Partly Cloudy
8:53 AM 82.0 °F 87.4 °F 73.0 °F 74% 29.94 in 10.0 mi SW 3.5 mph - N/A   Partly Cloudy
9:53 AM 84.9 °F 90.7 °F 72.0 °F 65% 29.94 in 10.0 mi SW 10.4 mph - N/A   Scattered Clouds
10:53 AM 87.1 °F 92.8 °F 71.1 °F 59% 29.95 in 10.0 mi West 9.2 mph - N/A   Scattered Clouds
11:53 AM 89.1 °F 94.1 °F 70.0 °F 53% 29.94 in 10.0 mi SW 9.2 mph - N/A   Scattered Clouds
12:53 PM 91.0 °F 95.6 °F 69.1 °F 48% 29.92 in 10.0 mi WSW 9.2 mph - N/A   Scattered Clouds
1:53 PM 91.9 °F 96.9 °F 69.1 °F 47% 29.91 in 10.0 mi SW 9.2 mph - N/A   Scattered Clouds
2:53 PM 95.0 °F 99.5 °F 68.0 °F 41% 29.88 in 10.0 mi South 9.2 mph - N/A   Scattered Clouds
3:53 PM 95.0 °F 99.5 °F 68.0 °F 41% 29.87 in 10.0 mi SW 12.7 mph - N/A   Scattered Clouds
4:53 PM 93.0 °F 100.7 °F 72.0 °F 50% 29.86 in 10.0 mi South 11.5 mph - N/A   Scattered Clouds
5:53 PM 91.9 °F 97.4 °F 70.0 °F 48% 29.85 in 10.0 mi South 13.8 mph - N/A   Scattered Clouds
6:53 PM 88.0 °F 92.9 °F 70.0 °F 55% 29.86 in 10.0 mi South 11.5 mph - N/A   Scattered Clouds
7:53 PM 84.9 °F 91.4 °F 73.0 °F 67% 29.86 in 10.0 mi South 9.2 mph - N/A   Scattered Clouds
8:53 PM 82.9 °F 89.4 °F 73.9 °F 74% 29.88 in 10.0 mi SSE 6.9 mph - N/A   Scattered Clouds
9:53 PM 82.0 °F 87.4 °F 73.0 °F 74% 29.91 in 10.0 mi SSE 5.8 mph - N/A   Partly Cloudy
10:53 PM 81.0 °F 86.2 °F 73.9 °F 79% 29.91 in 10.0 mi SSW 5.8 mph - N/A   Partly Cloudy
11:53 PM 81.0 °F 86.2 °F 73.9 °F 79% 29.91 in 10.0 mi South 8.1 mph - N/A   Partly Cloudy